Regional Weather Roundup
Issued by NWS New Orleans/Baton Rouge, LA

Home | Current Version | Previous Version | Text Only | Print | Product List | Glossary On
Versions: 1 2 3 4 5 6 7 8 9 10 11 12 13 14 15 16 17 18 19 20 21 22 23 24 25 26 27
000
ASUS44 KLIX 231913
RWRLIX
NEW ORLEANS REGIONAL WEATHER ROUNDUP
NATIONAL WEATHER SERVICE NEW ORLEANS LA
200 PM CDT WED AUG 23 2017

NOTE: "FAIR" INDICATES FEW OR NO CLOUDS BELOW 12,000 FEET WITH NO
      SIGNIFICANT WEATHER AND/OR OBSTRUCTIONS TO VISIBILITY.
      SKY/WX - SKY CONDITION AND SIGNIFICANT WEATHER.
      TMP - AIR TEMPERATURE.     DP    - DEWPOINT TEMPERATURE.
      RH  - RELATIVE HUMIDITY.   PRES  - PRESSURE.
      HI  - HEAT INDEX.          WCI   - WIND CHILL INDEX.

*  THESE STATIONS ARE NOT NWS OR FAA STATIONS AND ARE NOT UNDER
   NWS QUALITY CONTROL.

LAZ038-040-048-061>063-065>067-069-232000-
SOUTHEAST LOUISIANA

CITY           SKY/WX    TMP DP  RH WIND       PRES   REMARKS
N.O. INTL ARPT PTSUNNY   91  69  48 N8        29.93F HX  96
N.O. LAKEFRONT CLOUDY    90  76  63 N5        29.94F HX 101
N.O. DOWNTOWN*   N/A     89  70  53 VRB7      29.94F
RESERVE*         N/A     92  71  50 E3        29.94F HX  99
SLIDELL        CLOUDY    89  74  60 N6        29.93F HX  98
BATON ROUGE    MOSUNNY   90  71  53 VRB7      29.94F HX  96
BOOTHVILLE     CLOUDY    88  77  69 NE7       29.94F HX 100
BELLE CHASSE   NOT AVBL
BOGALUSA*        N/A     92  72  51 CALM      29.95F HX  99
GALLIANO*      CLOUDY    89  74  60 E3        29.93F HX  97
NEW ROADS*       N/A     87  73  64 CALM      29.94F
GONZALES*        N/A     90  73  57 NE3       29.93F HX  97
HAMMOND*       CLOUDY    91  68  46 E7        29.94F HX  95
HOUMA*         MOSUNNY   90  77  66 NE5       29.93F HX 102
PORT FOURCHON*   N/A     88  75  66 NE8       29.93F HX  97

$$

MSZ070-080>082-232000-
SOUTHERN MISSISSIPPI

CITY           SKY/WX    TMP DP  RH WIND       PRES   REMARKS
MCCOMB         SUNNY     92  70  48 VRB3      29.95F HX  97
GULFPORT       MOSUNNY   90  76  63 SE7       29.92F HX 101
BILOXI         CLOUDY    89  76  67 S9        29.92F HX 100
PASCAGOULA     PTSUNNY   91  72  53 CALM      29.93F HX  98
STENNIS ARPT*  MOSUNNY   91  73  55 CALM      29.93F HX 100

$$

COASTAL OBSERVATIONS
LAKE AND NEARSHORE STATIONS

STATION/POSITION TIME  TEMP    WIND        PRES    WAVE
                       AIR SEA DIR/SP/G            HT/PER
                 (UTC) (F)     (DEG/KT/KT) (MB)    (FT/S)
PASCAGOULA       1848   88     180/  6/ 10 1013.3
WAVELAND YACHT   1848   85 87  160/  9/ 12 1013.9
GRAND ISLE       1848   87 89   80/  5/  7 1013.9
SOUTHWEST PASS   1848   89      60/  8/ 10   N/A
NEW CANAL        1848   85 87  360/  4/  5 1013.7
SHELL BEACH      1848   86 90   30/  6/  6 1014.0

OFFSHORE STATIONS

STATION/POSITION TIME  TEMP    WIND        PRES    WAVE
                       AIR SEA DIR/SP/G            HT/PER
                 (UTC) (F)     (DEG/KT/KT) (MB)    (FT/S)
64 S DAUPHIN ISL 1850   85      60/  8/  8 1013.7    2/ 6

$$





USA.gov is the U.S. government's official web portal to all federal, state and local government web resources and services.